Regional Weather Roundup
Issued by NWS

Home | Current Version | Previous Version | Graphics & Text | Print | Product List | Glossary On
Versions: 1 2 3 4 5 6 7 8 9 10 11 12 13 14 15 16 17 18 19 20 21 22 23 24 25 26 27 28 29 30 31 32 33 34 35 36 37 38 39 40 41 42 43 44 45 46 47 48 49 50
523
ASUS45 KTFX 151210
RWRMT
MONTANA REGIONAL WEATHER ROUNDUP
NATIONAL WEATHER SERVICE GREAT FALLS MT
500 AM MST FRI DEC 15 2017

NOTE: "FAIR" INDICATES FEW OR NO CLOUDS BELOW 12000 FEET WITH NO
SIGNIFICANT WEATHER AND/OR OBSTRUCTIONS TO VISIBILITY.

MTZ001>007-043-151300-
WEST OF THE DIVIDE

CITY           SKY/WX    TMP DP  RH WIND       PRES   REMARKS
KALISPELL      CLOUDY    28  26  92 CALM      30.18F
MISSOULA       FOG       25  25 100 CALM      30.21F VSB 1
BUTTE          FAIR       9   5  84 SE5       30.11F
MULLAN PASS    FAIR      27  22  81 SW9       30.07F WCI  18
ANACONDA         N/A      7   3  85 CALM      30.13F VSB 0
DEER LODGE       N/A     14  14 100 CALM      30.18S VSB 1/4
EUREKA           N/A     25  21  86 MISG      30.16F
HAMILTON         N/A     21  19  93 CALM      30.18F VSB 1/4
LIBBY            N/A     28  25  86 CALM      30.16F
PLAINS           N/A     30  25  82 CALM      30.19F
RONAN            N/A     26  23  88 CALM      30.20R
$$

MTZ008-052>055-151300-
SOUTHWEST MONTANA

CITY           SKY/WX    TMP DP  RH WIND       PRES   REMARKS
BOZEMAN        FAIR       5   1  85 SE5       30.13F
DILLON         FAIR      25  16  68 S8        30.13F WCI  16
W YELLOWSTONE  CLOUDY    14  12  92 CALM      30.27F
ENNIS          CLOUDY    25  18  74 S21G29    30.20F WCI  10
THREE FORKS      N/A      3  -2  80 CALM      30.10F VSB 0
TWIN BRIDGES     N/A     19  11  71 CALM      30.10F
$$

MTZ009-010-012-014-046-048-049-054-151300-
EAST SLOPES AND CENTRAL MONTANA

CITY           SKY/WX    TMP DP  RH WIND       PRES   REMARKS
CUT BANK       FAIR      43  18  36 W44G56    29.77F
GREAT FALLS    FAIR      42  15  33 SW28G36   29.86F
MALMSTROM AFB  FAIR      44  15  31 SW30G37   29.86F
HELENA         FOG       17  16  95 CALM      30.12F VSB 1/2
BOWMANS CRNR   MOCLDY    32  19  57 S28G36    29.89F WCI  18
CHOTEAU          N/A     43  10  26 S7        29.87F
FAIRFIELD      MOCLDY    37  17  43 S18G25    29.86F WCI  27
POWER          FAIR      39  15  38 SW23G32   29.85F WCI  28
RAYNESFORD     MOCLDY    51   9  18 SW26G36   29.85F
ULM            FAIR      43  15  31 SW20G28   29.90F
$$

MTZ011-013-016-021-045-047-050-051-151300-
NORTH CENTRAL MONTANA

CITY           SKY/WX    TMP DP  RH WIND       PRES   REMARKS
HAVRE          FAIR      39  19  44 SW22      29.78F WCI  29
LEWISTOWN      FAIR      35  20  54 SW12      29.85F WCI  27
N BAR RANCH    FAIR      48   7  18 W7G14     29.85R
CHINOOK          N/A     45  18  33 W12       29.78F
DENTON         MOCLDY    41  16  35 S12       29.80F
GEYSER         CLOUDY    44  14  30 W18       29.84F
GRASS RANGE    FAIR      41  15  34 W21       29.79F
STANFORD       MOCLDY    48  12  24 W22G28    29.83F
WINIFRED       MOCLDY    42  15  33 SW10      29.81F
$$

MTZ017>020-022>027-061-062-151300-
NORTHEAST MONTANA

CITY           SKY/WX    TMP DP  RH WIND       PRES   REMARKS
GLASGOW        FAIR      25  21  85 W7        29.74F WCI  17
GLENDIVE       FAIR      25  21  85 SE3       29.79F
JORDAN           N/A     34  20  56 W6        29.77F WCI  29
SIDNEY         MOCLDY    29  24  82 S7        29.76F WCI  22
WOLF POINT     FAIR      26  22  84 W7        29.75F WCI  18
MALTA          CLEAR     23  21  93 SW9       29.76F WCI  13
PLENTYWOOD       N/A     27  25  93 CALM      29.70F
POPLAR           N/A     27  21  80 W3        29.75F
SCOBEY           N/A     30  19  63 CALM      29.70F
$$

MTZ028>42-056>058-151300-
SOUTHCENTRAL AND SOUTHEAST MONTANA

CITY           SKY/WX    TMP DP  RH WIND       PRES   REMARKS
BAKER          FAIR      29  22  75 W13       29.80F WCI  19
BILLINGS       FAIR      35  19  52 SW21      29.88F WCI  24
LIVINGSTON     FAIR      36  19  50 SW43G53   30.01R WCI  21
MILES CITY     FAIR      25  21  85 S5        29.82F
BIG TIMBER     CLEAR     39  14  35 W23G32    29.99R WCI  29
EKALAKA          N/A     32  17  54 SW12      29.81F WCI  23
FORSYTH          N/A     36  19  51 W7        29.83F WCI  30
LAUREL           N/A     36  18  48 SW20      29.91F WCI  25
$$

REGIONAL REPORTS...DAKOTAS

CITY           SKY/WX    TMP DP  RH WIND       PRES   REMARKS
WILLISTON      CLOUDY    29  25  85 SW3       29.75F
MINOT          CLOUDY    30  24  78 SW7       29.78F WCI  23
DICKINSON      MOCLDY    29  23  78 SW12      29.76F WCI  19
BEACH          FAIR      30  25  80 W15       29.80F WCI  19
CROSBY         MOCLDY    28  27  93 S10       29.72F WCI  19
TIOGA          CLOUDY    27  27 100 MISG      29.74F
WATFORD CITY   CLOUDY    30  25  80 S5        29.75F
BISMARCK       CLOUDY    28  23  81 SW5       29.84F
GRAND FORKS    CLOUDY    18  14  84 CALM      29.90F
FARGO          CLOUDY    20  16  84 N3        29.91F
BUFFALO SD       N/A     29  22  75 SW12      29.75F WCI  19
RAPID CITY     FAIR      20  10  65 W3        29.87F
$$

REGIONAL REPORTS...WYOMING/IDAHO/WASHINGTON

CITY           SKY/WX    TMP DP  RH WIND       PRES   REMARKS
GILLETTE       FAIR      32  15  49 SW16      29.90F WCI  21
SHERIDAN       FAIR      20  13  74 CALM      29.87F
BUFFALO WY     FAIR      35   2  24 S9        29.90F WCI  28
CODY           FAIR      37  10  32 W10G24    29.99F WCI  30
YELLOWSTONE LA   N/A     11   8  88 CALM      30.27S
IDAHO FALLS    FOG       19  17  92 N5        30.36F VSB 1/2
SALMON         CLOUDY    29  23  78 S10       30.32F WCI  20
BOISE          CLOUDY    26  24  92 SE8       30.40R WCI  18
SPOKANE        LGT SNOW  29  29 100 S3        30.21F
$$

REGIONAL REPORTS...ALBERTA

CITY           SKY/WX    TMP DP  RH WIND       PRES   REMARKS
EDMONTON       CLOUDY    43  32  65 W10       29.66
CALGARY        PTCLDY    50  21  32 W23G31    29.68F
LETHBRIDGE     MOCLDY    48  21  34 W40G52    29.69F
MEDICINE HAT   PTCLDY    37  21  52 SW8       29.71F WCI  31
$$

REGIONAL REPORTS...SASKATCHEWAN

CITY           SKY/WX    TMP DP  RH WIND       PRES   REMARKS
SWIFT CURRENT  PTCLDY    34  21  60 W15       29.65F WCI  24
REGINA         CLOUDY    28  27  93 SE7       29.63F WCI  21
SASKATOON      FLURRIES  32  28  86 SW8       29.60F WCI  25
$$




USA.gov is the U.S. government's official web portal to all federal, state and local government web resources and services.